Powrót do katalogu

YUNHAI 3-02

AktywnyNaukaSSO
NORAD 59343·PAYLOAD·🇨🇳 China

Wystrzelony Mar 26, 2024 z Taiyuan Satellite Launch Center

Loading…

Następne Przeloty (najbliższe 24 godziny)

TLE

ŚwieżeSource: Space-Track

Epoka: Sep 14, 2026, 14:27 UTC

1 59343U 24058A   26257.60238624 -.00000013  00000-0  16527-4 0  9996
2 59343  98.8241 264.2167 0001917 102.6978 257.4409 14.13331768127375

Śledź YUNHAI 3-02 w czasie rzeczywistym z AllMySat

Download on the App Store